Regional Weather Roundup
Issued by NWS

Home | Current Version | Previous Version | Text Only | Print | Product List | Glossary Off
Versions: 1 2 3 4 5 6 7 8 9 10 11 12 13 14 15 16 17 18 19 20 21 22 23 24 25 26 27 28 29 30 31 32 33 34 35 36 37 38 39 40 41 42 43 44 45 46 47 48 49 50

000
ASUS45 KABQ 211410
RWRNM
NEW MEXICO REGIONAL WEATHER ROUNDUP
NATIONAL WEATHER SERVICE ALBUQUERQUE NM
700 AM MST TUE FEB 21 2017

NOTE: "FAIR" MEANS FEW OR NO CLOUDS BELOW 12,000 FEET AGL WITH NO
       SIGNIFICANT WEATHER OR OBSTRUCTIONS TO VISION.

      THIS PRODUCT IS RELEASED AS TWO VERSIONS.  ONE VERSION NEAR
      THE TOP OF THE HOUR CONTAINING PRELIMINARY DATA FROM ALBUQUERQUE
      AND OTHER STATIONS.  A FINAL VERSION WITH ADDITIONAL DATA IS
      ISSUED ABOUT 10 MINUTES AFTER THE HOUR.

NMZ501-503-504-510>518-211500-
NORTHWEST PLATEAU/NORTHCENTRAL MOUNTAINS

CITY           SKY/WX    TMP DP  RH WIND       PRES   REMARKS
FARMINGTON     FAIR      32  29  88 E8        30.38R WCI  25
LOS ALAMOS     FAIR      36  28  72 CALM      30.36R
SANTA FE       FAIR      38  28  67 N10       30.32S WCI  31
TAOS           FAIR      27  16  63 N3        30.38R
ANGEL FIRE     FAIR      35  24  66 S5        30.36R WCI  31

$$
NMZ402-403-502-505>509-211500-
WESTCENTRAL MOUNTAINS/SOUTHWEST MOUNTAINS

CITY           SKY/WX    TMP DP  RH WIND       PRES   REMARKS
GALLUP         FAIR      24  22  91 CALM      30.43R
GRANTS         FAIR      26  25  96 NW16      30.43R WCI  14
SILVER CITY    FAIR      39  35  84 NW13      30.33R WCI  32

$$
NMZ407-409-411-412-211500-
SOUTHERN DESERTS

CITY           SKY/WX    TMP DP  RH WIND       PRES   REMARKS
DEMING         FAIR      36  34  92 SW5       30.32R WCI  32
LAS CRUCES     FAIR      40  35  81 NW6       30.31R
HOLLOMAN AFB   FAIR      34  26  71 N9        30.31R WCI  27
ALAMOGORDO     FAIR      36  27  69 E7        30.28R WCI  30
T OR C         FAIR      43  31  62 N3        30.31R

$$
NMZ519>523-211500-
CENTRAL VALLEYS/CENTRAL HIGHLANDS

CITY           SKY/WX    TMP DP  RH WIND       PRES   REMARKS
ALBUQUERQUE    FAIR      43  33  68 N7        30.35R
DOUBLE EAGLE   CLEAR     41  30  65 NW13      30.35S
MORIARTY ARPT  FAIR      41  32  70 NW12      30.32R
CLINES CORNERS FAIR      38  27  64 NW30G39   30.27S WCI  26
BELEN          FAIR      34  29  82 N5        30.35S WCI  30
SOCORRO        FAIR      39  30  71 N6        30.33R WCI  35

$$
NMZ524>526-539-540-211500-
SOUTHCENTRAL MOUNTAINS

CITY           SKY/WX    TMP DP  RH WIND       PRES   REMARKS
RUIDOSO        FAIR      43  28  56 NW10G16   30.33R

$$
NMZ527>531-211500-
NORTHEAST HIGHLANDS/NORTHEAST PLAINS

CITY           SKY/WX    TMP DP  RH WIND       PRES   REMARKS
LAS VEGAS      FAIR      37  15  40 NE5       30.21R WCI  33
RATON          NOT AVBL
CLAYTON        FAIR      36  23  59 S3        30.09R

$$
NMZ532>537-211500-
EASTCENTRAL PLAINS

CITY           SKY/WX    TMP DP  RH WIND       PRES   REMARKS
TUCUMCARI      FAIR      37  23  56 W12       30.09F WCI  29
CANNON AFB     FAIR      39  30  68 W6        30.10F
CLOVIS AIRPORT FAIR      34  25  69 NW9       30.11S WCI  26

$$
NMZ028-029-538-211500-
SOUTHEAST PLAINS

CITY           SKY/WX    TMP DP  RH WIND       PRES   REMARKS
ROSWELL        FAIR      36  25  64 SW6         N/A  WCI  31
ARTESIA        FAIR      39  27  60 SW7       30.17S WCI  34
CARLSBAD       FAIR      36  26  67 W5        30.16S WCI  32
HOBBS          CLEAR     37  25  60 SW5       30.17R WCI  34


$$




USA.gov is the U.S. government's official web portal to all federal, state and local government web resources and services.